QPF
0.00 0.00 0.00 0.00 0.00 0.00 0.00 0.00 0.00 0.00 0.00 0.00 0.00 0.00 0.00 0.00 0.00 0.00 0.00 0.00 0.00 0.00 0.00 0.00 0.00 0.00 0.00 0.00 0.00 0.00 0.00 0.00 0.00 0.00 0.00 0.00 0.00 0.00 0.00 0.00 0.00 0.00 0.00
0.00 0.00 0.00 0.00 0.00 0.00 0.00 0.00 0.00 0.00 0.00 0.00 0.00 0.00 0.00 0.00 0.00 0.00 0.00 0.00 0.00 0.00 0.00 0.00 0.00 0.00 0.00 0.00 0.00 0.00 0.00 0.00 0.00 0.00 0.00 0.00 0.00 0.00 0.00 0.00 0.00 0.00 0.00
0.00 0.00 0.00 0.00 0.00 0.00 0.00 0.00 0.00 0.00 0.00 0.00 0.00 0.00 0.00 0.00 0.00 0.00 0.00 0.00 0.00 0.00 0.00 0.00 0.00 0.00 0.00 0.00 0.00 0.00 0.00 0.00 0.00 0.00 0.00 0.00 0.00 0.00 0.00 0.00 0.00 0.00 0.00
0.00 0.00 0.00 0.00 0.00 0.00 0.00 0.00 0.00 0.00 0.00 0.00 0.00 0.00 0.00 0.00 0.00 0.00 0.00 0.00 0.00 0.00 0.00 0.00 0.00 0.00 0.00 0.00 0.00 0.00 0.00 0.00 0.00 0.00 0.00 0.00 0.00 0.00 0.00 0.00 0.00 0.00 0.00
0.00 0.00 0.00 0.00 0.00 0.00 0.00 0.00 0.00 0.00 0.00 0.00 0.00 0.00 0.00 0.00 0.00 0.00 0.00 0.00 0.00 0.00 0.00 0.00 0.00 0.00 0.00 0.00 0.00 0.00 0.00 0.00 0.00 0.00 0.00 0.00 0.00 0.00 0.00 0.00 0.00 0.00 0.00
0.00 0.00 0.00 0.00 0.00 0.00 0.00 0.00 0.00 0.00 0.00 0.00 0.00 0.00 0.00 0.00 0.00 0.00 0.00 0.00 0.00 0.00 0.00 0.00 0.00 0.00 0.00 0.00 0.00 0.00 0.00 0.00 0.00 0.00 0.00 0.00 0.00 0.00 0.00 0.00 0.00 0.00 0.00
0.02 0.01 0.01 0.00 0.00 0.00 0.00 0.00 0.00 0.00 0.00 0.00 0.00 0.00 0.00 0.00 0.00 0.00 0.00 0.00 0.00 0.00 0.00 0.00 0.00 0.00 0.00 0.00 0.00 0.00 0.00 0.00 0.00 0.00 0.00 0.00 0.00 0.00 0.00 0.00 0.00 0.00 0.00
0.03 0.01 0.01 0.01 0.00 0.00 0.00 0.00 0.00 0.00 0.00 0.00 0.00 0.00 0.00 0.00 0.00 0.00 0.00 0.00 0.00 0.00 0.00 0.00 0.00 0.00 0.00 0.00 0.00 0.00 0.00 0.00 0.00 0.00 0.00 0.00 0.00 0.00 0.00 0.00 0.00 0.00 0.00
0.04 0.02 0.03 0.05 0.04 0.01 0.00 0.00 0.00 0.00 0.00 0.00 0.00 0.00 0.00 0.00 0.00 0.00 0.00 0.00 0.00 0.00 0.00 0.00 0.00 0.00 0.00 0.00 0.00 0.00 0.00 0.00 0.00 0.00 0.00 0.00 0.00 0.00 0.00 0.00 0.00 0.00 0.00
0.04 0.05 0.03 0.08 0.13 0.04 0.00 0.00 0.00 0.00 0.00 0.00 0.00 0.00 0.00 0.00 0.00 0.00 0.00 0.00 0.00 0.00 0.00 0.00 0.00 0.00 0.00 0.00 0.00 0.00 0.00 0.00 0.00 0.00 0.00 0.00 0.00 0.00 0.00 0.00 0.00 0.00 0.00
0.05 0.06 0.03 0.07 0.09 0.07 0.06 0.04 0.01 0.01 0.00 0.00 0.00 0.00 0.00 0.00 0.00 0.00 0.00 0.00 0.00 0.00 0.00 0.00 0.00 0.00 0.00 0.00 0.00 0.00 0.00 0.00 0.00 0.00 0.00 0.00 0.00 0.00 0.00 0.00 0.00 0.00 0.00
0.03 0.03 0.04 0.05 0.07 0.07 0.05 0.06 0.05 0.02 0.01 0.00 0.00 0.00 0.00 0.00 0.00 0.00 0.00 0.00 0.00 0.00 0.00 0.00 0.00 0.00 0.00 0.00 0.00 0.00 0.00 0.00 0.00 0.00 0.00 0.00 0.00 0.00 0.00 0.00 0.00 0.00 0.00
0.00 0.01 0.02 0.02 0.02 0.04 0.07 0.06 0.04 0.04 0.02 0.01 0.00 0.00 0.00 0.00 0.00 0.00 0.00 0.00 0.00 0.00 0.00 0.00 0.00 0.00 0.00 0.00 0.00 0.00 0.00 0.00 0.00 0.00 0.00 0.00 0.00 0.00 0.00 0.00 0.00 0.00 0.00
0.00 0.01 0.03 0.05 0.06 0.06 0.05 0.04 0.04 0.03 0.02 0.01 0.01 0.00 0.00 0.00 0.00 0.00 0.00 0.00 0.00 0.00 0.00 0.00 0.00 0.00 0.00 0.00 0.00 0.00 0.00 0.00 0.00 0.00 0.00 0.00 0.00 0.00 0.00 0.00 0.00 0.00 0.00
0.00 0.00 0.01 0.03 0.06 0.08 0.07 0.06 0.04 0.03 0.02 0.01 0.01 0.00 0.00 0.00 0.00 0.00 0.00 0.00 0.00 0.00 0.00 0.00 0.00 0.00 0.00 0.00 0.00 0.00 0.00 0.00 0.00 0.00 0.00 0.00 0.00 0.00 0.00 0.00 0.00 0.00 0.00
0.00 0.00 0.00 0.01 0.03 0.05 0.06 0.08 0.06 0.03 0.01 0.00 0.00 0.00 0.00 0.00 0.00 0.00 0.00 0.00 0.00 0.00 0.00 0.00 0.00 0.00 0.00 0.00 0.00 0.00 0.00 0.00 0.00 0.00 0.00 0.00 0.00 0.00 0.00 0.00 0.00 0.00 0.00
0.00 0.00 0.01 0.00 0.01 0.02 0.03 0.04 0.04 0.01 0.00 0.00 0.00 0.00 0.00 0.00 0.00 0.00 0.00 0.00 0.00 0.00 0.00 0.00 0.00 0.00 0.00 0.00 0.00 0.00 0.00 0.00 0.00 0.00 0.00 0.00 0.00 0.00 0.00 0.00 0.00 0.00 0.00
0.00 0.00 0.01 0.01 0.00 0.00 0.01 0.01 0.02 0.01 0.00 0.00 0.00 0.00 0.00 0.00 0.00 0.00 0.00 0.00 0.00 0.00 0.00 0.00 0.00 0.00 0.00 0.00 0.00 0.00 0.00 0.00 0.00 0.00 0.00 0.00 0.00 0.00 0.00 0.00 0.00 0.00 0.00
0.00 0.00 0.00 0.00 0.00 0.01 0.01 0.00 0.00 0.00 0.00 0.00 0.00 0.00 0.00 0.00 0.00 0.00 0.00 0.00 0.00 0.00 0.00 0.00 0.00 0.00 0.00 0.00 0.00 0.00 0.00 0.00 0.00 0.00 0.00 0.00 0.00 0.00 0.00 0.00 0.00 0.00 0.00
0.01 0.00 0.00 0.00 0.00 0.00 0.00 0.00 0.00 0.00 0.00 0.00 0.00 0.00 0.00 0.00 0.00 0.00 0.00 0.00 0.00 0.00 0.00 0.00 0.00 0.00 0.00 0.00 0.00 0.00 0.00 0.00 0.00 0.00 0.00 0.00 0.00 0.00 0.00 0.00 0.00 0.00 0.00
0.01 0.00 0.00 0.00 0.01 0.01 0.00 0.00 0.00 0.00 0.00 0.00 0.00 0.00 0.00 0.00 0.00 0.00 0.00 0.00 0.00 0.00 0.00 0.00 0.00 0.00 0.00 0.00 0.00 0.00 0.00 0.00 0.00 0.00 0.00 0.00 0.00 0.00 0.00 0.00 0.00 0.00 0.00
0.00 0.01 0.01 0.01 0.01 0.01 0.00 0.00 0.00 0.00 0.00 0.00 0.00 0.00 0.00 0.00 0.00 0.00 0.00 0.00 0.00 0.00 0.00 0.00 0.00 0.00 0.00 0.00 0.00 0.00 0.00 0.00 0.00 0.00 0.00 0.00 0.00 0.00 0.00 0.00 0.00 0.00 0.00
0.01 0.00 0.00 0.01 0.01 0.00 0.00 0.00 0.00 0.00 0.00 0.00 0.00 0.00 0.00 0.00 0.00 0.00 0.00 0.00 0.00 0.00 0.00 0.00 0.00 0.00 0.00 0.00 0.00 0.00 0.00 0.00 0.00 0.00 0.00 0.00 0.00 0.00 0.00 0.00 0.00 0.00 0.00
0.00 0.00 0.00 0.00 0.00 0.00 0.00 0.00 0.00 0.00 0.00 0.00 0.00 0.00 0.00 0.00 0.00 0.00 0.00 0.00 0.00 0.00 0.00 0.00 0.00 0.00 0.00 0.00 0.00 0.00 0.00 0.00 0.00 0.00 0.00 0.00 0.00 0.00 0.00 0.00 0.00 0.00 0.00
0.00 0.00 0.00 0.00 0.00 0.00 0.00 0.00 0.00 0.00 0.00 0.00 0.00 0.00 0.00 0.00 0.00 0.00 0.00 0.00 0.00 0.00 0.00 0.00 0.00 0.00 0.00 0.00 0.00 0.00 0.00 0.00 0.00 0.00 0.00 0.00 0.00 0.00 0.00 0.00 0.00 0.00 0.00
0.00 0.00 0.00 0.00 0.00 0.00 0.00 0.00 0.00 0.00 0.00 0.00 0.00 0.00 0.00 0.00 0.00 0.00 0.00 0.00 0.00 0.00 0.00 0.00 0.00 0.00 0.00 0.00 0.00 0.00 0.00 0.00 0.00 0.00 0.00 0.00 0.00 0.00 0.00 0.00 0.00 0.00 0.00
MSLP
1019.21 1019.53 1019.89 1020.18 1020.46 1020.77 1020.93 1021.40 1021.69 1021.89 1022.11 1022.31 1022.43 1022.57 1022.65 1022.78 1022.80 1022.93 1022.93 1022.96 1022.98 1023.12 1023.24 1023.38 1023.53 1023.67 1023.75 1023.86 1023.92 1023.99 1024.08 1024.07 1023.97 1023.95 1023.91 1023.84 1023.83 1023.71 1023.58 1023.51 1023.34 1023.14 1022.89
1018.84 1019.18 1019.56 1019.91 1020.34 1020.64 1020.98 1021.35 1021.52 1021.83 1022.06 1022.28 1022.54 1022.72 1022.91 1022.97 1023.00 1023.15 1023.22 1023.38 1023.42 1023.52 1023.54 1023.71 1023.72 1023.82 1023.90 1024.02 1024.09 1024.22 1024.31 1024.29 1024.24 1024.16 1024.15 1024.10 1024.00 1023.91 1023.76 1023.66 1023.55 1023.42 1023.24
1018.52 1018.82 1019.20 1019.56 1019.93 1020.41 1020.97 1021.45 1021.69 1022.00 1022.24 1022.43 1022.63 1022.82 1023.05 1023.23 1023.25 1023.43 1023.48 1023.54 1023.75 1023.80 1023.76 1023.95 1024.02 1024.09 1024.22 1024.17 1024.16 1024.27 1024.41 1024.47 1024.50 1024.48 1024.38 1024.30 1024.21 1024.07 1023.92 1023.77 1023.67 1023.56 1023.40
1018.27 1018.56 1018.86 1019.10 1019.56 1020.23 1020.76 1021.19 1021.57 1021.82 1022.12 1022.19 1022.51 1022.72 1022.99 1023.31 1023.35 1023.53 1023.79 1023.82 1024.06 1024.13 1024.11 1024.28 1024.34 1024.37 1024.45 1024.46 1024.39 1024.40 1024.44 1024.48 1024.58 1024.64 1024.58 1024.50 1024.40 1024.24 1024.05 1023.88 1023.73 1023.57 1023.36
1017.73 1018.05 1018.36 1018.71 1019.34 1020.06 1020.58 1020.93 1021.44 1021.55 1021.90 1022.33 1022.60 1022.95 1023.10 1023.26 1023.45 1023.67 1023.76 1024.01 1024.19 1024.31 1024.35 1024.64 1024.78 1024.71 1024.69 1024.72 1024.68 1024.52 1024.47 1024.48 1024.53 1024.55 1024.52 1024.50 1024.45 1024.31 1024.10 1023.95 1023.74 1023.50 1023.28
1016.74 1017.44 1017.84 1018.31 1018.95 1019.71 1020.32 1020.76 1021.15 1021.66 1021.85 1022.17 1022.69 1023.08 1023.26 1023.45 1023.55 1023.57 1023.74 1024.14 1024.34 1024.47 1024.57 1024.68 1024.89 1024.96 1024.91 1024.91 1024.92 1024.84 1024.67 1024.57 1024.46 1024.44 1024.46 1024.39 1024.28 1024.21 1024.00 1023.80 1023.59 1023.37 1023.16
1015.89 1016.46 1017.09 1017.64 1018.42 1019.01 1019.53 1020.23 1021.00 1021.53 1021.92 1022.24 1022.71 1023.11 1023.36 1023.50 1023.54 1023.54 1023.71 1023.90 1024.36 1024.53 1024.73 1024.80 1024.92 1024.99 1025.03 1025.19 1025.17 1025.01 1024.87 1024.68 1024.41 1024.37 1024.31 1024.26 1024.11 1023.96 1023.82 1023.56 1023.32 1023.09 1022.95
1014.81 1015.35 1015.97 1016.87 1017.63 1018.41 1019.19 1019.79 1020.30 1021.16 1021.49 1021.86 1021.93 1022.47 1022.94 1023.48 1023.47 1023.53 1023.78 1023.83 1024.03 1024.37 1024.68 1024.92 1024.90 1025.07 1025.12 1025.16 1025.30 1025.25 1024.99 1024.72 1024.50 1024.33 1024.17 1023.99 1023.81 1023.63 1023.43 1023.23 1022.97 1022.69 1022.50
1013.87 1014.23 1014.97 1015.79 1016.75 1017.40 1018.01 1018.57 1019.29 1019.70 1020.46 1021.42 1021.47 1021.45 1022.26 1021.98 1022.76 1023.40 1023.62 1023.78 1024.05 1024.10 1024.30 1024.62 1024.88 1025.04 1025.23 1025.26 1025.22 1025.16 1025.08 1024.95 1024.64 1024.37 1024.12 1023.88 1023.65 1023.44 1023.13 1022.85 1022.63 1022.40 1022.12
1013.07 1013.66 1014.12 1014.88 1015.79 1016.43 1016.99 1017.09 1017.88 1018.42 1019.01 1020.00 1021.46 1021.44 1021.45 1021.48 1021.86 1022.75 1023.37 1023.57 1023.81 1023.81 1024.07 1024.46 1024.69 1024.98 1025.11 1025.24 1025.35 1025.28 1025.22 1025.13 1024.85 1024.54 1024.22 1023.95 1023.62 1023.27 1022.95 1022.63 1022.31 1022.01 1021.73
1012.51 1012.84 1013.05 1013.62 1014.66 1015.39 1015.95 1016.51 1016.92 1017.69 1018.00 1018.74 1019.28 1020.66 1021.39 1021.66 1021.63 1021.52 1022.20 1022.94 1023.59 1023.59 1023.86 1024.21 1024.50 1024.79 1025.07 1025.21 1025.25 1025.29 1025.19 1025.07 1024.85 1024.61 1024.26 1023.92 1023.55 1023.08 1022.63 1022.24 1021.88 1021.61 1021.42
1011.87 1012.37 1012.74 1012.98 1013.50 1014.28 1014.94 1015.44 1016.37 1016.98 1017.52 1017.95 1018.83 1019.24 1019.61 1020.43 1020.90 1021.17 1021.67 1022.23 1022.53 1023.17 1023.67 1024.02 1024.25 1024.41 1024.70 1024.92 1025.11 1025.13 1025.16 1025.00 1024.81 1024.47 1024.13 1023.70 1023.36 1022.94 1022.58 1022.20 1021.88 1021.58 1021.29
1011.09 1011.19 1011.83 1012.38 1012.77 1013.34 1014.00 1014.99 1015.82 1016.54 1017.08 1017.56 1018.28 1018.99 1019.35 1019.44 1019.94 1020.66 1021.13 1021.73 1022.07 1023.03 1023.40 1023.70 1023.98 1024.27 1024.63 1024.82 1024.97 1024.98 1025.05 1024.87 1024.67 1024.28 1023.87 1023.39 1023.15 1022.94 1022.62 1022.35 1021.88 1021.43 1020.99
1010.16 1010.79 1011.18 1011.50 1012.03 1012.89 1013.78 1014.41 1015.23 1016.02 1016.84 1017.45 1018.09 1018.75 1019.20 1019.54 1019.78 1019.84 1020.37 1021.57 1022.49 1022.82 1023.03 1023.00 1023.68 1023.94 1024.43 1024.65 1024.67 1024.58 1024.63 1024.74 1024.57 1024.12 1023.70 1023.38 1023.04 1022.81 1022.50 1022.17 1021.74 1021.30 1020.85
1009.68 1009.95 1010.55 1011.14 1011.72 1012.59 1013.36 1014.13 1014.95 1015.68 1016.48 1017.10 1017.71 1018.49 1019.29 1019.75 1019.60 1020.32 1020.39 1020.69 1021.85 1022.44 1022.90 1023.51 1023.24 1023.60 1023.84 1024.28 1024.37 1024.23 1024.28 1024.44 1024.17 1023.79 1023.38 1023.08 1022.76 1022.45 1022.13 1021.59 1021.18 1020.72 1020.29
1009.42 1009.95 1010.54 1011.15 1011.75 1012.42 1013.15 1013.97 1014.44 1015.46 1016.43 1017.28 1017.81 1018.41 1019.20 1020.12 1020.85 1021.10 1021.02 1020.85 1022.06 1022.40 1023.02 1022.90 1023.21 1023.57 1023.52 1023.78 1023.93 1023.83 1023.95 1023.90 1023.57 1023.25 1022.72 1022.42 1022.20 1021.73 1021.38 1021.08 1020.54 1020.02 1019.52
1009.49 1009.97 1010.43 1010.95 1011.61 1012.43 1013.12 1013.80 1014.58 1015.25 1015.22 1017.36 1018.07 1018.53 1019.21 1020.01 1020.84 1021.88 1022.44 1021.85 1022.81 1022.96 1023.07 1023.19 1023.49 1023.51 1023.29 1023.13 1023.23 1023.38 1023.53 1023.24 1022.87 1022.50 1022.01 1021.85 1021.53 1021.07 1020.58 1020.32 1019.84 1019.37 1018.95
1009.60 1009.82 1010.44 1011.00 1011.63 1012.21 1012.79 1013.61 1014.49 1015.43 1015.77 1017.12 1018.36 1019.18 1019.90 1020.50 1021.30 1021.54 1022.14 1022.90 1023.37 1023.47 1023.34 1023.69 1023.50 1023.19 1023.35 1023.00 1022.95 1023.13 1022.94 1022.59 1022.31 1021.82 1021.51 1021.21 1020.84 1020.45 1020.03 1019.76 1019.26 1018.73 1018.26
1009.74 1010.01 1010.47 1010.98 1011.66 1012.26 1012.93 1013.74 1014.68 1015.52 1016.30 1017.37 1018.22 1019.18 1020.15 1020.82 1021.23 1021.71 1021.90 1023.20 1023.79 1023.91 1023.34 1024.02 1023.36 1023.46 1023.19 1022.87 1022.57 1022.59 1022.61 1022.04 1021.83 1021.44 1021.03 1020.62 1020.16 1019.94 1019.46 1019.00 1018.61 1018.04 1017.47
1010.65 1010.71 1010.61 1011.19 1012.04 1012.85 1013.49 1014.09 1014.85 1015.86 1017.03 1018.24 1019.01 1019.56 1020.28 1020.84 1021.12 1022.05 1022.09 1022.21 1023.08 1022.82 1023.15 1023.71 1023.37 1023.15 1023.09 1022.40 1022.30 1022.18 1021.70 1021.53 1021.15 1020.75 1020.42 1020.05 1019.67 1019.29 1018.73 1018.41 1017.99 1017.41 1016.94
1011.83 1011.97 1011.84 1012.32 1012.81 1013.63 1014.46 1015.23 1016.03 1017.09 1017.82 1018.69 1019.84 1020.43 1020.92 1021.11 1021.76 1021.48 1021.67 1022.35 1022.36 1022.42 1022.24 1022.94 1022.75 1022.59 1022.56 1022.01 1021.73 1021.59 1021.31 1021.15 1020.72 1020.30 1019.62 1019.42 1019.07 1018.65 1018.05 1017.58 1017.13 1016.55 1016.01
1012.82 1013.04 1013.15 1013.44 1013.66 1014.44 1015.13 1015.99 1016.57 1017.90 1018.95 1019.33 1020.20 1020.68 1021.17 1021.25 1021.53 1021.51 1021.39 1021.42 1021.93 1021.96 1021.56 1022.32 1022.21 1021.79 1021.77 1021.53 1021.46 1021.24 1021.07 1020.74 1019.92 1019.16 1019.10 1018.72 1018.48 1017.63 1017.06 1016.67 1016.11 1015.55 1015.01
1013.76 1014.18 1014.41 1014.82 1014.95 1015.53 1015.91 1016.72 1017.58 1018.09 1019.36 1019.71 1020.42 1020.87 1021.04 1021.91 1022.00 1021.85 1021.97 1021.31 1021.08 1021.37 1021.28 1021.56 1021.54 1021.37 1021.23 1021.06 1021.07 1020.93 1020.64 1020.25 1019.82 1019.01 1018.64 1017.78 1017.31 1016.61 1016.07 1015.54 1015.02 1014.51 1013.97
1014.70 1014.91 1015.30 1015.85 1016.30 1016.82 1016.91 1017.61 1018.29 1019.22 1019.64 1020.23 1020.61 1020.89 1021.65 1021.83 1021.41 1021.16 1021.17 1020.93 1021.09 1021.42 1021.36 1021.32 1021.14 1020.84 1020.74 1020.53 1020.66 1020.44 1020.07 1019.69 1019.33 1018.51 1018.15 1017.10 1015.92 1015.42 1014.97 1014.46 1013.88 1013.36 1012.92
1015.89 1016.31 1016.02 1017.02 1017.25 1017.83 1018.48 1018.49 1018.84 1019.37 1019.85 1020.37 1020.60 1021.26 1021.27 1021.47 1020.73 1020.52 1020.70 1020.74 1021.13 1021.33 1021.24 1020.90 1020.46 1020.20 1020.10 1020.00 1019.88 1019.82 1019.65 1019.42 1018.70 1017.80 1017.37 1016.91 1015.41 1014.79 1014.21 1013.20 1012.62 1012.24 1011.95
1017.07 1017.27 1017.73 1017.91 1018.29 1018.33 1018.78 1019.26 1019.25 1019.55 1019.96 1020.24 1020.63 1021.12 1020.95 1020.59 1020.40 1020.50 1020.65 1021.08 1021.26 1021.03 1020.66 1020.31 1020.16 1020.01 1019.92 1019.88 1019.82 1019.63 1019.42 1019.12 1018.72 1017.66 1016.63 1016.71 1015.46 1015.04 1013.66 1012.16 1011.79 1011.52 1011.33
Thickness
5673 5671 5668 5667 5664 5662 5661 5657 5655 5653 5651 5649 5648 5646 5645 5643 5642 5639 5637 5636 5634 5632 5630 5627 5624 5622 5620 5617 5616 5615 5614 5613 5614 5614 5614 5614 5614 5615 5615 5615 5617 5618 5620
5670 5668 5666 5663 5659 5657 5655 5651 5650 5648 5645 5643 5642 5640 5637 5636 5635 5633 5630 5627 5626 5623 5621 5618 5616 5614 5612 5610 5608 5607 5606 5606 5606 5606 5606 5606 5607 5607 5608 5608 5609 5609 5610
5667 5665 5662 5660 5655 5652 5648 5645 5643 5641 5639 5637 5635 5633 5630 5627 5627 5624 5622 5620 5617 5616 5614 5611 5609 5606 5604 5603 5602 5600 5598 5598 5597 5597 5598 5598 5598 5599 5599 5600 5601 5601 5602
5662 5659 5658 5656 5652 5646 5643 5640 5637 5636 5634 5634 5631 5628 5624 5620 5620 5617 5613 5612 5609 5607 5605 5602 5600 5598 5596 5594 5594 5592 5591 5590 5589 5587 5588 5587 5588 5588 5589 5590 5590 5591 5593
5659 5656 5654 5651 5647 5641 5637 5635 5631 5631 5629 5626 5623 5619 5617 5615 5612 5610 5608 5605 5602 5599 5597 5593 5590 5590 5588 5586 5585 5585 5584 5583 5581 5579 5578 5578 5578 5578 5579 5579 5580 5581 5582
5659 5654 5651 5647 5643 5637 5632 5629 5627 5622 5622 5619 5615 5611 5608 5608 5605 5604 5602 5597 5594 5592 5589 5587 5584 5582 5581 5578 5576 5575 5575 5574 5573 5572 5570 5569 5569 5568 5569 5570 5570 5571 5572
5658 5655 5649 5644 5640 5635 5631 5626 5620 5616 5614 5611 5607 5603 5601 5600 5599 5598 5595 5592 5587 5583 5581 5579 5576 5574 5573 5570 5568 5567 5566 5565 5565 5564 5563 5561 5561 5560 5560 5561 5562 5563 5563
5659 5655 5651 5644 5638 5631 5625 5621 5617 5611 5609 5606 5607 5602 5601 5595 5592 5590 5587 5585 5582 5577 5573 5570 5569 5565 5564 5562 5558 5557 5556 5556 5555 5555 5554 5554 5553 5553 5553 5553 5553 5554 5554
5654 5652 5648 5642 5635 5630 5626 5621 5617 5615 5610 5601 5601 5605 5596 5605 5592 5582 5579 5576 5573 5571 5568 5565 5561 5558 5554 5552 5550 5548 5546 5544 5544 5543 5543 5543 5543 5543 5544 5544 5544 5544 5544
5649 5644 5643 5638 5633 5628 5625 5625 5619 5617 5613 5605 5591 5592 5591 5594 5596 5586 5572 5569 5566 5565 5561 5556 5553 5549 5546 5542 5539 5537 5535 5533 5532 5532 5532 5531 5532 5533 5534 5534 5534 5535 5534
5642 5640 5639 5638 5632 5626 5623 5620 5617 5612 5610 5603 5601 5588 5582 5580 5580 5586 5581 5568 5557 5556 5553 5548 5544 5540 5536 5532 5529 5527 5525 5523 5521 5520 5520 5520 5520 5522 5523 5523 5524 5524 5523
5634 5632 5630 5631 5629 5625 5620 5618 5611 5607 5603 5601 5593 5590 5587 5584 5579 5576 5571 5563 5561 5549 5543 5539 5535 5532 5527 5523 5520 5516 5513 5511 5510 5509 5508 5507 5507 5508 5508 5508 5508 5507 5508
5630 5630 5625 5622 5622 5620 5615 5608 5603 5599 5596 5593 5588 5582 5580 5579 5574 5564 5562 5555 5552 5539 5534 5529 5524 5521 5515 5511 5507 5505 5501 5498 5497 5496 5495 5495 5493 5492 5491 5489 5490 5491 5491
5624 5619 5617 5616 5615 5610 5604 5600 5595 5591 5585 5581 5578 5573 5569 5566 5564 5562 5557 5545 5536 5531 5525 5525 5514 5510 5503 5499 5495 5494 5490 5486 5483 5482 5481 5479 5478 5476 5474 5473 5472 5472 5472
5612 5612 5609 5606 5604 5600 5595 5590 5586 5582 5576 5572 5569 5564 5558 5554 5555 5548 5543 5539 5531 5527 5519 5504 5506 5499 5494 5488 5483 5481 5478 5474 5471 5470 5468 5466 5464 5461 5459 5458 5457 5456 5455
5592 5592 5593 5592 5591 5588 5585 5580 5578 5571 5566 5559 5557 5554 5548 5540 5533 5529 5527 5524 5514 5509 5505 5499 5492 5484 5481 5476 5471 5469 5464 5461 5458 5456 5456 5453 5450 5448 5445 5442 5442 5442 5441
5568 5570 5572 5575 5576 5575 5572 5569 5565 5562 5566 5547 5543 5542 5536 5530 5521 5509 5503 5505 5494 5490 5489 5483 5475 5472 5469 5466 5460 5454 5449 5447 5444 5441 5440 5436 5433 5432 5430 5425 5425 5424 5423
5545 5550 5551 5555 5558 5560 5561 5559 5554 5549 5549 5538 5531 5525 5519 5517 5505 5501 5489 5485 5477 5473 5470 5466 5462 5460 5453 5451 5447 5440 5435 5432 5429 5426 5423 5419 5416 5413 5411 5407 5406 5405 5402
5527 5532 5535 5539 5541 5544 5544 5543 5541 5537 5533 5526 5520 5513 5505 5500 5492 5487 5483 5465 5462 5455 5455 5447 5448 5441 5438 5434 5433 5427 5420 5419 5413 5408 5405 5402 5399 5393 5389 5386 5383 5380 5376
5506 5512 5520 5522 5523 5525 5526 5528 5526 5522 5516 5508 5503 5499 5493 5486 5480 5470 5467 5462 5451 5449 5442 5432 5431 5427 5422 5422 5418 5413 5411 5404 5399 5391 5388 5384 5379 5373 5368 5365 5359 5353 5348
5485 5489 5497 5500 5504 5506 5506 5506 5506 5501 5498 5494 5486 5480 5473 5469 5462 5459 5456 5447 5442 5437 5434 5423 5420 5415 5409 5410 5405 5400 5395 5390 5383 5373 5373 5364 5358 5351 5346 5341 5336 5335 5335
5469 5473 5479 5484 5489 5491 5493 5492 5491 5482 5478 5478 5470 5465 5459 5455 5448 5446 5444 5438 5430 5423 5423 5410 5406 5404 5398 5395 5389 5384 5377 5371 5370 5357 5356 5351 5339 5336 5332 5326 5322 5322 5321
5456 5458 5463 5468 5474 5475 5478 5477 5473 5469 5465 5464 5456 5451 5447 5436 5434 5429 5425 5424 5422 5411 5408 5400 5395 5389 5386 5380 5374 5365 5359 5354 5348 5340 5340 5343 5329 5332 5325 5319 5315 5315 5314
5448 5449 5451 5455 5459 5461 5467 5463 5459 5453 5453 5449 5445 5438 5428 5424 5425 5423 5417 5415 5407 5395 5390 5383 5378 5375 5369 5362 5354 5347 5339 5335 5329 5321 5318 5330 5329 5329 5322 5313 5311 5310 5308
5441 5440 5447 5445 5449 5450 5449 5450 5448 5446 5443 5438 5432 5423 5420 5415 5419 5417 5411 5403 5390 5380 5375 5370 5366 5360 5352 5342 5334 5327 5319 5314 5314 5312 5309 5318 5320 5323 5317 5310 5308 5306 5303
5435 5436 5436 5438 5438 5439 5439 5436 5437 5437 5433 5428 5422 5415 5413 5413 5411 5403 5396 5385 5375 5368 5362 5355 5347 5338 5330 5319 5310 5305 5301 5299 5299 5304 5308 5308 5307 5304 5314 5309 5306 5301 5297